When you browse on this site, cookies collect data to enhance your experience and personalize the content and advertising you see.
Visit our Privacy Policy to learn more. By continuing to use the site, you agree to this use of cookies and data.

Hourly Weather Saint John's

Today, 15 July, Wednesday

Time Temperature Precipitation Wind Pressure Humidity
00:00 +10°C° 0.3 mm 6 mps 759 mmHg 92%
01:00 +10°C° 0.3 mm 6 mps 759 mmHg 93%
02:00 +9°C° 0.3 mm 6 mps 759 mmHg 95%
03:00 +9°C° 2.2 mm 6 mps 759 mmHg 95%
04:00 +9°C° 2.2 mm 6 mps 759 mmHg 96%
05:00 +9°C° 2.2 mm 6 mps 759 mmHg 97%
06:00 +9°C° 1.5 mm 6 mps 760 mmHg 97%
07:00 +9°C° 1.5 mm 7 mps 760 mmHg 97%
08:00 +9°C° 1.5 mm 7 mps 760 mmHg 97%
09:00 +9°C° 1 mm 7 mps 760 mmHg 97%
10:00 +9°C° 1 mm 8 mps 760 mmHg 97%
11:00 +9°C° 1 mm 8 mps 760 mmHg 97%
12:00 +9°C° 2.7 mm 8 mps 760 mmHg 97%
13:00 +8°C° 2.7 mm 9 mps 760 mmHg 97%
14:00 +8°C° 2.7 mm 9 mps 759 mmHg 97%
15:00 +8°C° 1.8 mm 10 mps 759 mmHg 97%
16:00 +8°C° 1.8 mm 10 mps 759 mmHg 97%
17:00 +8°C° 1.8 mm 10 mps 759 mmHg 96%
18:00 +8°C° 2.8 mm 10 mps 759 mmHg 96%
19:00 +8°C° 2.8 mm 11 mps 759 mmHg 96%
20:00 +8°C° 2.8 mm 11 mps 759 mmHg 96%
21:00 +8°C° 1.2 mm 11 mps 759 mmHg 96%
22:00 +8°C° 1.2 mm 11 mps 759 mmHg 96%
23:00 +8°C° 1.2 mm 11 mps 759 mmHg 96%

Tomorrow, 16 July, Thursday

Time Temperature Precipitation Wind Pressure Humidity
00:00 +8°C° 0.2 mm 11 mps 759 mmHg 96%
01:00 +8°C° 0.2 mm 11 mps 759 mmHg 95%
02:00 +8°C° 0.2 mm 11 mps 759 mmHg 94%
03:00 +8°C° 0.1 mm 11 mps 759 mmHg 94%
04:00 +8°C° 0.1 mm 10 mps 759 mmHg 94%
05:00 +8°C° 0.1 mm 10 mps 759 mmHg 94%
06:00 +8°C° 0.1 mm 10 mps 760 mmHg 94%
07:00 +9°C° 0.1 mm 10 mps 760 mmHg 93%
08:00 +9°C° 0.1 mm 10 mps 761 mmHg 93%
09:00 +9°C° 0 mm 10 mps 761 mmHg 92%
10:00 +9°C° 0 mm 10 mps 761 mmHg 91%
11:00 +9°C° 0 mm 10 mps 761 mmHg 90%
12:00 +9°C° 0 mm 10 mps 761 mmHg 89%
13:00 +9°C° 0 mm 10 mps 761 mmHg 89%
14:00 +9°C° 0 mm 10 mps 761 mmHg 88%
15:00 +9°C° 0.1 mm 10 mps 760 mmHg 89%
16:00 +9°C° 0.1 mm 10 mps 760 mmHg 90%
17:00 +9°C° 0.1 mm 10 mps 760 mmHg 91%
18:00 +9°C° 0.1 mm 10 mps 760 mmHg 91%
19:00 +8°C° 0.1 mm 10 mps 760 mmHg 92%
20:00 +8°C° 0.1 mm 10 mps 761 mmHg 93%
21:00 +8°C° 0.2 mm 10 mps 760 mmHg 93%
22:00 +8°C° 0.2 mm 9 mps 760 mmHg 94%
23:00 +8°C° 0.2 mm 9 mps 760 mmHg 94%

Day after tomorrow, 17 July, Friday

Time Temperature Precipitation Wind Pressure Humidity
00:00 +8°C° 0.1 mm 9 mps 759 mmHg 95%
01:00 +8°C° 0.1 mm 9 mps 759 mmHg 95%
02:00 +8°C° 0.1 mm 9 mps 759 mmHg 95%
03:00 +10°C° 0.2 mm 9 mps 758 mmHg 95%
04:00 +10°C° 0.2 mm 9 mps 758 mmHg 96%
05:00 +10°C° 0.2 mm 9 mps 758 mmHg 96%
06:00 +10°C° 0.4 mm 9 mps 758 mmHg 96%
07:00 +10°C° 0.4 mm 9 mps 758 mmHg 96%
08:00 +10°C° 0.4 mm 9 mps 758 mmHg 96%
09:00 +10°C° 0.5 mm 9 mps 758 mmHg 96%
10:00 +10°C° 0.5 mm 8 mps 758 mmHg 97%
11:00 +10°C° 0.5 mm 8 mps 757 mmHg 97%
12:00 +10°C° 0.2 mm 8 mps 757 mmHg 96%
13:00 +10°C° 0.2 mm 8 mps 757 mmHg 96%
14:00 +11°C° 0.2 mm 8 mps 757 mmHg 96%
15:00 +11°C° 0 mm 8 mps 757 mmHg 94%
16:00 +11°C° 0 mm 8 mps 756 mmHg 93%
17:00 +11°C° 0 mm 7 mps 756 mmHg 92%
18:00 +10°C° 0 mm 7 mps 756 mmHg 92%
19:00 +10°C° 0 mm 7 mps 757 mmHg 92%
20:00 +10°C° 0 mm 6 mps 757 mmHg 93%
21:00 +10°C° 0 mm 6 mps 756 mmHg 93%
22:00 +9°C° 0 mm 6 mps 756 mmHg 92%
23:00 +9°C° 0 mm 5 mps 756 mmHg 92%

18 July, Saturday

Time Temperature Precipitation Wind Pressure Humidity
00:00 +9°C° 0 mm 5 mps 755 mmHg 92%
01:00 +9°C° 0 mm 5 mps 755 mmHg 92%
02:00 +9°C° 0 mm 5 mps 755 mmHg 92%
03:00 +9°C° 0 mm 5 mps 755 mmHg 91%
04:00 +9°C° 0 mm 6 mps 755 mmHg 90%
05:00 +9°C° 0 mm 6 mps 755 mmHg 89%
06:00 +10°C° 0 mm 6 mps 755 mmHg 85%
07:00 +12°C° 0 mm 5 mps 755 mmHg 82%
08:00 +12°C° 0 mm 5 mps 755 mmHg 79%
09:00 +13°C° 0 mm 4 mps 754 mmHg 72%
10:00 +16°C° 0 mm 3 mps 754 mmHg 66%
11:00 +17°C° 0 mm 3 mps 754 mmHg 60%
12:00 +18°C° 0 mm 2 mps 754 mmHg 58%
13:00 +19°C° 0 mm 2 mps 754 mmHg 55%
14:00 +21°C° 0 mm 1 mps 754 mmHg 53%
15:00 +19°C° 0 mm 2 mps 754 mmHg 57%
16:00 +19°C° 0 mm 3 mps 753 mmHg 61%
17:00 +18°C° 0 mm 4 mps 753 mmHg 64%
18:00 +17°C° 0 mm 4 mps 754 mmHg 68%
19:00 +15°C° 0 mm 4 mps 754 mmHg 73%
20:00 +14°C° 0 mm 4 mps 754 mmHg 77%
21:00 +14°C° 0 mm 4 mps 754 mmHg 80%
22:00 +14°C° 0 mm 4 mps 753 mmHg 84%
23:00 +14°C° 0 mm 4 mps 753 mmHg 88%

19 July, Sunday

Time Temperature Precipitation Wind Pressure Humidity
00:00 +14°C° 0.1 mm 4 mps 753 mmHg 89%
01:00 +14°C° 0.1 mm 4 mps 753 mmHg 91%
02:00 +14°C° 0.1 mm 4 mps 753 mmHg 93%
03:00 +14°C° 0.2 mm 4 mps 753 mmHg 94%
04:00 +14°C° 0.2 mm 3 mps 753 mmHg 96%
05:00 +14°C° 0.2 mm 3 mps 753 mmHg 97%
06:00 +14°C° 0.1 mm 3 mps 753 mmHg 97%
07:00 +16°C° 0.1 mm 3 mps 753 mmHg 96%
08:00 +16°C° 0.1 mm 3 mps 753 mmHg 96%
09:00 +17°C° 0 mm 3 mps 753 mmHg 91%
10:00 +18°C° 0 mm 3 mps 753 mmHg 86%
11:00 +20°C° 0 mm 3 mps 753 mmHg 81%
12:00 +20°C° 0 mm 3 mps 753 mmHg 77%
13:00 +21°C° 0 mm 3 mps 753 mmHg 72%
14:00 +22°C° 0 mm 3 mps 753 mmHg 68%
15:00 +23°C° 0 mm 2 mps 753 mmHg 69%
16:00 +23°C° 0 mm 2 mps 753 mmHg 69%
17:00 +23°C° 0 mm 2 mps 753 mmHg 70%
18:00 +20°C° 0 mm 2 mps 753 mmHg 77%
19:00 +19°C° 0 mm 3 mps 754 mmHg 85%
20:00 +17°C° 0 mm 3 mps 754 mmHg 92%
21:00 +17°C° 0 mm 4 mps 754 mmHg 93%
22:00 +15°C° 0 mm 4 mps 754 mmHg 94%
23:00 +15°C° 0 mm 4 mps 754 mmHg 95%

20 July, Monday

Time Temperature Precipitation Wind Pressure Humidity
00:00 +14°C° 0 mm 4 mps 754 mmHg 95%
01:00 +14°C° 0 mm 4 mps 754 mmHg 94%
02:00 +14°C° 0 mm 4 mps 754 mmHg 94%
03:00 +14°C° 0 mm 4 mps 754 mmHg 93%
04:00 +15°C° 0 mm 5 mps 754 mmHg 92%
05:00 +15°C° 0 mm 5 mps 755 mmHg 91%
06:00 +16°C° 0 mm 5 mps 755 mmHg 88%
07:00 +19°C° 0 mm 5 mps 755 mmHg 85%
08:00 +20°C° 0 mm 5 mps 755 mmHg 82%
09:00 +21°C° 0 mm 5 mps 755 mmHg 79%
10:00 +22°C° 0 mm 6 mps 755 mmHg 76%
11:00 +22°C° 0 mm 6 mps 755 mmHg 74%
12:00 +23°C° 0 mm 6 mps 755 mmHg 73%
13:00 +23°C° 0 mm 6 mps 755 mmHg 72%
14:00 +23°C° 0 mm 7 mps 755 mmHg 71%
15:00 +23°C° 0 mm 7 mps 755 mmHg 73%
16:00 +23°C° 0 mm 7 mps 755 mmHg 75%
17:00 +22°C° 0 mm 7 mps 755 mmHg 76%
18:00 +21°C° 0 mm 7 mps 755 mmHg 82%
19:00 +20°C° 0 mm 6 mps 755 mmHg 87%
20:00 +17°C° 0 mm 6 mps 755 mmHg 92%
21:00 +17°C° 0 mm 6 mps 755 mmHg 93%
22:00 +17°C° 0 mm 6 mps 755 mmHg 94%
23:00 +17°C° 0 mm 6 mps 755 mmHg 95%
Show more